| time (UTC) | temp F | wind direction | speed MPH | gust MPH | rain 1hr in | rain 24hr in | rain mn in | humidity % | barometer mb |
| 20260505053338 | 73 | 217 | 0.0 | 4.0 | 0.00 | 0.00 | 0.00 | 41 | 1009.5 |
| 20260505052405 | 73 | 259 | 1.0 | 8.0 | 0.00 | 0.00 | 0.00 | 41 | 1009.6 |
| 20260505051332 | 73 | 271 | 3.0 | 7.0 | 0.00 | 0.00 | 0.00 | 41 | 1009.8 |
| 20260505050343 | 73 | 271 | 2.0 | 6.0 | 0.00 | 0.00 | 0.00 | 40 | 1010.1 |
| 20260505041347 | 74 | 234 | 2.0 | 6.0 | 0.00 | 0.00 | 0.00 | 40 | 1009.7 |
| 20260505040328 | 74 | 248 | 2.0 | 9.0 | 0.00 | 0.00 | 0.00 | 41 | 1009.8 |
| 20260505035329 | 74 | 229 | 2.0 | 9.0 | 0.00 | 0.00 | 0.00 | 41 | 1009.8 |
| 20260505034328 | 74 | 243 | 2.0 | 6.0 | 0.00 | 0.00 | 0.00 | 41 | 1009.6 |
| 20260505033325 | 74 | 215 | 3.0 | 9.0 | 0.00 | 0.00 | 0.00 | 42 | 1009.1 |
| 20260505032327 | 74 | 239 | 3.0 | 9.0 | 0.00 | 0.00 | 0.00 | 42 | 1009.0 |
| 20260505031327 | 74 | 221 | 2.0 | 8.0 | 0.00 | 0.00 | 0.00 | 43 | 1008.9 |
| 20260505030327 | 74 | 251 | 4.0 | 11.0 | 0.00 | 0.00 | 0.00 | 42 | 1008.7 |
| 20260505025345 | 74 | 261 | 1.0 | 6.0 | 0.00 | 0.00 | 0.00 | 42 | 1008.7 |
| 20260505024344 | 74 | 238 | 4.0 | 9.0 | 0.00 | 0.00 | 0.00 | 42 | 1008.7 |
| 20260505023327 | 74 | 266 | 4.0 | 9.0 | 0.00 | 0.00 | 0.00 | 42 | 1008.8 |
| 20260505022329 | 75 | 259 | 6.0 | 10.0 | 0.00 | 0.00 | 0.00 | 41 | 1008.8 |
| 20260505021328 | 75 | 294 | 7.0 | 9.0 | 0.00 | 0.00 | 0.00 | 41 | 1008.7 |
| 20260505020328 | 75 | 279 | 3.0 | 9.0 | 0.00 | 0.00 | 0.00 | 40 | 1008.7 |
| 20260505015347 | 75 | 219 | 1.0 | 9.0 | 0.00 | 0.00 | 0.00 | 40 | 1008.6 |
| 20260505014352 | 75 | 271 | 5.0 | 8.0 | 0.00 | 0.00 | 0.00 | 40 | 1008.6 |
| 20260505013328 | 76 | 238 | 4.0 | 8.0 | 0.00 | 0.00 | 0.00 | 39 | 1008.6 |
| 20260505012347 | 76 | 268 | 1.0 | 9.0 | 0.00 | 0.00 | 0.00 | 38 | 1008.5 |
| 20260505011327 | 76 | 313 | 4.0 | 8.0 | 0.00 | 0.00 | 0.00 | 37 | 1008.5 |
| 20260505010327 | 76 | 261 | 0.0 | 7.0 | 0.00 | 0.00 | 0.00 | 36 | 1008.5 |
| 20260505005329 | 77 | 279 | 1.0 | 8.0 | 0.00 | 0.00 | 0.00 | 36 | 1008.5 |
| 20260505004328 | 77 | 267 | 3.0 | 7.0 | 0.00 | 0.00 | 0.00 | 35 | 1008.7 |
| 20260505003327 | 77 | 258 | 1.0 | 8.0 | 0.00 | 0.00 | 0.00 | 36 | 1008.7 |
| 20260505002346 | 77 | 306 | 2.0 | 8.0 | 0.00 | 0.00 | 0.00 | 36 | 1008.8 |
| 20260505001328 | 77 | 261 | 3.0 | 8.0 | 0.00 | 0.00 | 0.00 | 37 | 1008.8 |
| 20260505000351 | 77 | 277 | 3.0 | 8.0 | 0.00 | 0.00 | 0.00 | 37 | 1009.0 |
| 20260504235348 | 77 | 350 | 2.0 | 5.0 | 0.00 | 0.00 | 0.00 | 36 | 1008.9 |
| 20260504234345 | 78 | 256 | 0.0 | 4.0 | 0.00 | 0.00 | 0.00 | 37 | 1009.0 |
| 20260504233404 | 78 | 244 | 3.0 | 7.0 | 0.00 | 0.00 | 0.00 | 36 | 1009.0 |
| 20260504232339 | 77 | 265 | 2.0 | 7.0 | 0.00 | 0.00 | 0.00 | 37 | 1009.1 |
| 20260504231340 | 77 | 310 | 0.0 | 6.0 | 0.00 | 0.00 | 0.00 | 37 | 1009.1 |
| 20260504230339 | 77 | 32 | 0.0 | 4.0 | 0.00 | 0.00 | 0.00 | 37 | 1009.1 |
| 20260504225341 | 78 | 277 | 2.0 | 5.0 | 0.00 | 0.00 | 0.00 | 37 | 1009.3 |
| 20260504224401 | 77 | 257 | 0.0 | 4.0 | 0.00 | 0.00 | 0.00 | 38 | 1009.1 |
| 20260504223338 | 77 | 319 | 0.0 | 5.0 | 0.00 | 0.00 | 0.00 | 38 | 1009.3 |
| 20260504222341 | 77 | 329 | 1.0 | 8.0 | 0.00 | 0.00 | 0.00 | 38 | 1009.4 |
| 20260504221400 | 77 | 296 | 5.0 | 12.0 | 0.00 | 0.00 | 0.00 | 39 | 1009.6 |
| 20260504220338 | 76 | 306 | 3.0 | 5.0 | 0.00 | 0.00 | 0.00 | 39 | 1009.7 |
| 20260504215336 | 76 | 313 | 5.0 | 10.0 | 0.00 | 0.00 | 0.00 | 40 | 1009.9 |
| 20260504214332 | 76 | 263 | 2.0 | 8.0 | 0.00 | 0.00 | 0.00 | 40 | 1010.0 |
| 20260504213333 | 75 | 327 | 1.0 | 5.0 | 0.00 | 0.00 | 0.00 | 41 | 1010.3 |
| 20260504212333 | 75 | 166 | 0.0 | 3.0 | 0.00 | 0.00 | 0.00 | 41 | 1010.3 |
| 20260504211332 | 75 | 253 | 2.0 | 7.0 | 0.00 | 0.00 | 0.00 | 41 | 1010.5 |
| 20260504210330 | 74 | 272 | 1.0 | 10.0 | 0.00 | 0.00 | 0.00 | 41 | 1010.8 |
| 20260504205330 | 75 | 273 | 5.0 | 11.0 | 0.00 | 0.00 | 0.00 | 39 | 1010.9 |
| 20260504204332 | 75 | 261 | 4.0 | 11.0 | 0.00 | 0.00 | 0.00 | 38 | 1010.8 |
| 20260504203330 | 76 | 329 | 5.0 | 10.0 | 0.00 | 0.00 | 0.00 | 38 | 1010.9 |
| 20260504202350 | 76 | 270 | 4.0 | 12.0 | 0.00 | 0.00 | 0.00 | 39 | 1010.9 |
| 20260504201327 | 75 | 311 | 4.0 | 10.0 | 0.00 | 0.00 | 0.00 | 41 | 1010.9 |
| 20260504200407 | 75 | 269 | 6.0 | 10.0 | 0.00 | 0.00 | 0.00 | 40 | 1010.9 |
| 20260504195328 | 75 | 225 | 2.0 | 8.0 | 0.00 | 0.00 | 0.00 | 41 | 1010.7 |
| 20260504194328 | 75 | 234 | 1.0 | 6.0 | 0.00 | 0.00 | 0.00 | 41 | 1010.5 |
| 20260504193327 | 75 | 320 | 0.0 | 5.0 | 0.00 | 0.00 | 0.00 | 42 | 1010.7 |
| 20260504192326 | 75 | 182 | 1.0 | 6.0 | 0.00 | 0.00 | 0.00 | 42 | 1010.6 |
| 20260504191329 | 74 | 231 | 3.0 | 10.0 | 0.00 | 0.00 | 0.00 | 43 | 1011.1 |
| 20260504190333 | 74 | 261 | 3.0 | 8.0 | 0.00 | 0.00 | 0.00 | 43 | 1011.0 |
| 20260504185401 | 74 | 286 | 4.0 | 8.0 | 0.00 | 0.00 | 0.00 | 43 | 1010.8 |
| 20260504184328 | 74 | 319 | 1.0 | 6.0 | 0.00 | 0.00 | 0.00 | 44 | 1010.7 |
| 20260504183339 | 74 | 246 | 1.0 | 4.0 | 0.00 | 0.00 | 0.00 | 44 | 1010.9 |
| 20260504182348 | 73 | 230 | 1.0 | 6.0 | 0.00 | 0.00 | 0.00 | 44 | 1010.8 |
| 20260504181336 | 73 | 252 | 2.0 | 8.0 | 0.00 | 0.00 | 0.00 | 46 | 1011.3 |
| 20260504180341 | 73 | 334 | 2.0 | 10.0 | 0.00 | 0.00 | 0.00 | 46 | 1011.5 |
| 20260504175333 | 72 | 290 | 5.0 | 10.0 | 0.00 | 0.00 | 0.00 | 47 | 1011.6 |
| 20260504174340 | 72 | 279 | 5.0 | 7.0 | 0.00 | 0.00 | 0.00 | 48 | 1011.3 |
| 20260504173328 | 72 | 273 | 1.0 | 3.0 | 0.00 | 0.00 | 0.00 | 48 | 1010.5 |
| 20260504172337 | 72 | 188 | 1.0 | 5.0 | 0.00 | 0.00 | 0.00 | 49 | 1010.4 |
| 20260504171328 | 71 | 286 | 4.0 | 8.0 | 0.00 | 0.00 | 0.00 | 49 | 1010.9 |
| 20260504170335 | 71 | 217 | 4.0 | 11.0 | 0.00 | 0.00 | 0.00 | 50 | 1011.0 |
| 20260504160345 | 71 | 321 | 5.0 | 9.0 | 0.00 | 0.00 | 0.00 | 49 | 1010.9 |
| 20260504150344 | 73 | 234 | 0.0 | 4.0 | 0.00 | 0.00 | 0.00 | 41 | 1010.5 |
| 20260504140327 | 72 | 331 | 0.0 | 0.0 | 0.00 | 0.00 | 0.00 | 43 | 1009.6 |
| 20260504130339 | 73 | 251 | 0.0 | 0.0 | 0.00 | 0.00 | 0.00 | 40 | 1009.4 |
| 20260504110331 | 74 | 355 | 0.0 | 0.0 | 0.00 | 0.00 | 0.00 | 38 | 1008.5 |
| 20260504100333 | 75 | 320 | 1.0 | 3.0 | 0.00 | 0.00 | 0.00 | 36 | 1008.6 |
| 20260504081330 | 78 | 304 | 0.0 | 1.0 | 0.00 | 0.00 | 0.00 | 33 | 1008.0 |
| 20260504080328 | 78 | 147 | 3.0 | 8.0 | 0.00 | 0.00 | 0.00 | 33 | 1007.9 |
| 20260504070341 | 78 | 152 | 0.0 | 0.0 | 0.00 | 0.00 | 0.00 | 28 | 1008.2 |